Time,TemperatureF,DewpointF,PressureIn,WindDirection,WindDirectionDegrees,WindSpeedMPH,WindSpeedGustMPH,Humidity,HourlyPrecipIn,Conditions,Clouds,dailyrainin,SoftwareType,DateUTC
2013-05-23 00:00:00,67.3,63.9,29.96,WSW,248,0.0,-999.0,89,0.00,,,0.26,Wunderground v.1.15,2013-05-23 04:00:00,
2013-05-23 00:05:00,67.3,63.9,29.96,WSW,248,0.0,-999.0,89,0.00,,,0.26,Wunderground v.1.15,2013-05-23 04:05:00,
2013-05-23 00:10:00,67.3,63.9,29.96,WSW,248,0.0,-999.0,89,0.00,,,0.26,Wunderground v.1.15,2013-05-23 04:10:00,
2013-05-23 00:15:00,67.3,63.9,29.96,WSW,248,0.0,-999.0,89,0.00,,,0.26,Wunderground v.1.15,2013-05-23 04:15:00,
2013-05-23 00:20:00,67.3,63.9,29.96,WSW,248,0.0,-999.0,89,0.00,,,0.26,Wunderground v.1.15,2013-05-23 04:20:00,
2013-05-23 00:25:00,67.3,63.9,29.96,WSW,248,0.0,-999.0,89,0.00,,,0.26,Wunderground v.1.15,2013-05-23 04:25:00,
2013-05-23 00:30:00,67.3,63.9,29.96,WSW,248,0.0,-999.0,89,0.00,,,0.26,Wunderground v.1.15,2013-05-23 04:30:00,
2013-05-23 00:35:00,67.3,63.9,29.96,WSW,248,0.0,-999.0,89,0.00,,,0.26,Wunderground v.1.15,2013-05-23 04:35:00,
2013-05-23 00:40:00,67.3,63.9,29.96,WSW,248,0.0,-999.0,89,0.00,,,0.26,Wunderground v.1.15,2013-05-23 04:40:00,
2013-05-23 00:45:00,67.5,63.8,29.95,WSW,248,1.0,-999.0,88,0.00,,,0.26,Wunderground v.1.15,2013-05-23 04:45:00,
2013-05-23 00:50:00,67.5,63.8,29.95,WSW,248,1.0,-999.0,88,0.00,,,0.26,Wunderground v.1.15,2013-05-23 04:50:00,
2013-05-23 00:55:00,67.5,63.8,29.95,WSW,248,1.0,-999.0,88,0.00,,,0.26,Wunderground v.1.15,2013-05-23 04:55:00,
2013-05-23 01:00:00,67.5,63.8,29.95,WSW,248,1.0,-999.0,88,0.00,,,0.26,Wunderground v.1.15,2013-05-23 05:00:00,
2013-05-23 01:05:00,67.5,63.8,29.95,WSW,248,1.0,-999.0,88,0.00,,,0.26,Wunderground v.1.15,2013-05-23 05:05:00,
2013-05-23 01:10:00,67.5,63.8,29.95,WSW,248,1.0,-999.0,88,0.00,,,0.26,Wunderground v.1.15,2013-05-23 05:10:00,
2013-05-23 01:15:00,67.3,63.6,29.94,SW,225,0.0,-999.0,88,0.00,,,0.26,Wunderground v.1.15,2013-05-23 05:15:00,
2013-05-23 01:20:00,67.3,63.6,29.94,SW,225,0.0,-999.0,88,0.00,,,0.26,Wunderground v.1.15,2013-05-23 05:20:00,
2013-05-23 01:25:00,67.3,63.6,29.94,SW,225,0.0,-999.0,88,0.00,,,0.26,Wunderground v.1.15,2013-05-23 05:25:00,
2013-05-23 01:30:00,67.3,63.6,29.94,SW,225,0.0,-999.0,88,0.00,,,0.26,Wunderground v.1.15,2013-05-23 05:30:00,
2013-05-23 01:35:00,67.3,63.6,29.94,SW,225,0.0,-999.0,88,0.00,,,0.26,Wunderground v.1.15,2013-05-23 05:35:00,
2013-05-23 01:40:00,67.3,63.6,29.94,SW,225,0.0,-999.0,88,0.00,,,0.26,Wunderground v.1.15,2013-05-23 05:40:00,
2013-05-23 01:45:00,67.7,63.7,29.94,WSW,248,1.0,-999.0,87,0.00,,,0.26,Wunderground v.1.15,2013-05-23 05:45:00,
2013-05-23 01:50:00,67.7,63.7,29.94,WSW,248,1.0,-999.0,87,0.00,,,0.26,Wunderground v.1.15,2013-05-23 05:50:00,
2013-05-23 01:55:00,67.7,63.7,29.94,WSW,248,1.0,-999.0,87,0.00,,,0.26,Wunderground v.1.15,2013-05-23 05:55:00,
2013-05-23 02:00:00,67.7,63.7,29.94,WSW,248,1.0,-999.0,87,0.00,,,0.26,Wunderground v.1.15,2013-05-23 06:00:00,
2013-05-23 02:05:00,67.7,63.7,29.94,WSW,248,1.0,-999.0,87,0.00,,,0.26,Wunderground v.1.15,2013-05-23 06:05:00,
2013-05-23 02:10:00,67.7,63.7,29.94,WSW,248,1.0,-999.0,87,0.00,,,0.26,Wunderground v.1.15,2013-05-23 06:10:00,
2013-05-23 02:15:00,66.1,63.1,29.91,West,270,0.0,-999.0,90,0.24,,,0.26,Wunderground v.1.15,2013-05-23 06:15:00,
2013-05-23 02:20:00,66.1,63.1,29.91,West,270,0.0,-999.0,90,0.24,,,0.26,Wunderground v.1.15,2013-05-23 06:20:00,
2013-05-23 02:25:00,66.1,63.1,29.91,West,270,0.0,-999.0,90,0.24,,,0.26,Wunderground v.1.15,2013-05-23 06:25:00,
2013-05-23 02:30:00,66.1,63.1,29.91,West,270,0.0,-999.0,90,0.24,,,0.26,Wunderground v.1.15,2013-05-23 06:30:00,
2013-05-23 02:35:00,66.1,63.1,29.91,West,270,0.0,-999.0,90,0.24,,,0.26,Wunderground v.1.15,2013-05-23 06:35:00,
2013-05-23 02:40:00,66.1,63.1,29.91,West,270,0.0,-999.0,90,0.24,,,0.26,Wunderground v.1.15,2013-05-23 06:40:00,
2013-05-23 02:45:00,66.0,63.9,29.90,ENE,68,0.0,-999.0,93,0.25,,,0.26,Wunderground v.1.15,2013-05-23 06:45:00,
2013-05-23 02:50:00,66.0,63.9,29.90,ENE,68,0.0,-999.0,93,0.25,,,0.26,Wunderground v.1.15,2013-05-23 06:50:00,
2013-05-23 02:55:00,66.0,63.9,29.90,ENE,68,0.0,-999.0,93,0.25,,,0.26,Wunderground v.1.15,2013-05-23 06:55:00,
2013-05-23 03:00:00,66.0,63.9,29.90,ENE,68,0.0,-999.0,93,0.25,,,0.26,Wunderground v.1.15,2013-05-23 07:00:00,
2013-05-23 03:05:00,66.0,63.9,29.90,ENE,68,0.0,-999.0,93,0.25,,,0.26,Wunderground v.1.15,2013-05-23 07:05:00,
2013-05-23 03:10:00,66.0,63.9,29.90,ENE,68,0.0,-999.0,93,0.25,,,0.26,Wunderground v.1.15,2013-05-23 07:10:00,
2013-05-23 03:15:00,66.8,65.0,29.90,ENE,68,0.0,-999.0,94,0.02,,,0.26,Wunderground v.1.15,2013-05-23 07:15:00,
2013-05-23 03:20:00,66.8,65.0,29.90,ENE,68,0.0,-999.0,94,0.02,,,0.26,Wunderground v.1.15,2013-05-23 07:20:00,
2013-05-23 03:25:00,66.8,65.0,29.90,ENE,68,0.0,-999.0,94,0.02,,,0.26,Wunderground v.1.15,2013-05-23 07:25:00,
2013-05-23 03:30:00,66.8,65.0,29.90,ENE,68,0.0,-999.0,94,0.02,,,0.26,Wunderground v.1.15,2013-05-23 07:30:00,
2013-05-23 03:35:00,66.8,65.0,29.90,ENE,68,0.0,-999.0,94,0.02,,,0.26,Wunderground v.1.15,2013-05-23 07:35:00,
2013-05-23 03:40:00,66.8,65.0,29.90,ENE,68,0.0,-999.0,94,0.02,,,0.26,Wunderground v.1.15,2013-05-23 07:40:00,
2013-05-23 03:45:00,66.5,64.4,29.91,East,90,0.0,-999.0,93,0.01,,,0.26,Wunderground v.1.15,2013-05-23 07:45:00,
2013-05-23 03:50:00,66.5,64.4,29.91,East,90,0.0,-999.0,93,0.01,,,0.26,Wunderground v.1.15,2013-05-23 07:50:00,
2013-05-23 03:55:00,66.5,64.4,29.91,East,90,0.0,-999.0,93,0.01,,,0.26,Wunderground v.1.15,2013-05-23 07:55:00,
2013-05-23 04:00:00,66.5,64.4,29.91,East,90,0.0,-999.0,93,0.01,,,0.26,Wunderground v.1.15,2013-05-23 08:00:00,
2013-05-23 04:05:00,66.5,64.4,29.91,East,90,0.0,-999.0,93,0.01,,,0.26,Wunderground v.1.15,2013-05-23 08:05:00,
2013-05-23 04:10:00,66.5,64.4,29.91,East,90,0.0,-999.0,93,0.01,,,0.26,Wunderground v.1.15,2013-05-23 08:10:00,
2013-05-23 04:15:00,66.5,64.7,29.92,WNW,293,0.0,-999.0,94,0.00,,,0.26,Wunderground v.1.15,2013-05-23 08:15:00,
2013-05-23 04:20:00,66.5,64.7,29.92,WNW,293,0.0,-999.0,94,0.00,,,0.26,Wunderground v.1.15,2013-05-23 08:20:00,
2013-05-23 04:25:00,66.5,64.7,29.92,WNW,293,0.0,-999.0,94,0.00,,,0.26,Wunderground v.1.15,2013-05-23 08:25:00,
2013-05-23 04:30:00,66.5,64.7,29.92,WNW,293,0.0,-999.0,94,0.00,,,0.26,Wunderground v.1.15,2013-05-23 08:30:00,
2013-05-23 04:35:00,66.5,64.7,29.92,WNW,293,0.0,-999.0,94,0.00,,,0.26,Wunderground v.1.15,2013-05-23 08:35:00,
2013-05-23 04:40:00,66.5,64.7,29.92,WNW,293,0.0,-999.0,94,0.00,,,0.26,Wunderground v.1.15,2013-05-23 08:40:00,
2013-05-23 04:45:00,66.3,64.5,29.92,West,270,1.0,-999.0,94,0.00,,,0.26,Wunderground v.1.15,2013-05-23 08:45:00,
2013-05-23 04:50:00,66.3,64.5,29.92,West,270,1.0,-999.0,94,0.00,,,0.26,Wunderground v.1.15,2013-05-23 08:50:00,
2013-05-23 04:55:00,66.3,64.5,29.92,West,270,1.0,-999.0,94,0.00,,,0.26,Wunderground v.1.15,2013-05-23 08:55:00,
2013-05-23 05:00:00,66.3,64.5,29.92,West,270,1.0,-999.0,94,0.00,,,0.26,Wunderground v.1.15,2013-05-23 09:00:00,
2013-05-23 05:05:00,66.3,64.5,29.92,West,270,1.0,-999.0,94,0.00,,,0.26,Wunderground v.1.15,2013-05-23 09:05:00,
2013-05-23 05:10:00,66.3,64.5,29.92,West,270,1.0,-999.0,94,0.00,,,0.26,Wunderground v.1.15,2013-05-23 09:10:00,
2013-05-23 05:15:00,65.8,64.0,29.92,WSW,248,1.0,-999.0,94,0.00,,,0.26,Wunderground v.1.15,2013-05-23 09:15:00,
2013-05-23 05:20:00,65.8,64.0,29.92,WSW,248,1.0,-999.0,94,0.00,,,0.26,Wunderground v.1.15,2013-05-23 09:20:00,
2013-05-23 05:25:00,65.8,64.0,29.92,WSW,248,1.0,-999.0,94,0.00,,,0.26,Wunderground v.1.15,2013-05-23 09:25:00,
2013-05-23 05:30:00,65.8,64.0,29.92,WSW,248,1.0,-999.0,94,0.00,,,0.26,Wunderground v.1.15,2013-05-23 09:30:00,
2013-05-23 05:35:00,65.8,64.0,29.92,WSW,248,1.0,-999.0,94,0.00,,,0.26,Wunderground v.1.15,2013-05-23 09:35:00,
2013-05-23 05:40:00,65.8,64.0,29.92,WSW,248,1.0,-999.0,94,0.00,,,0.26,Wunderground v.1.15,2013-05-23 09:40:00,
2013-05-23 05:45:00,65.6,63.8,29.92,West,270,0.0,-999.0,94,0.00,,,0.26,Wunderground v.1.15,2013-05-23 09:45:00,
2013-05-23 05:50:00,65.6,63.8,29.92,West,270,0.0,-999.0,94,0.00,,,0.26,Wunderground v.1.15,2013-05-23 09:50:00,
2013-05-23 05:55:00,65.6,63.8,29.92,West,270,0.0,-999.0,94,0.00,,,0.26,Wunderground v.1.15,2013-05-23 09:55:00,
2013-05-23 06:00:00,65.6,63.8,29.92,West,270,0.0,-999.0,94,0.00,,,0.26,Wunderground v.1.15,2013-05-23 10:00:00,
2013-05-23 06:05:00,65.6,63.8,29.92,West,270,0.0,-999.0,94,0.00,,,0.26,Wunderground v.1.15,2013-05-23 10:05:00,
2013-05-23 06:10:00,65.6,63.8,29.92,West,270,0.0,-999.0,94,0.00,,,0.26,Wunderground v.1.15,2013-05-23 10:10:00,
2013-05-23 06:15:00,65.7,64.2,29.92,West,270,1.0,-999.0,95,0.00,,,0.26,Wunderground v.1.15,2013-05-23 10:15:00,
2013-05-23 06:20:00,65.7,64.2,29.92,West,270,1.0,-999.0,95,0.00,,,0.26,Wunderground v.1.15,2013-05-23 10:20:00,
2013-05-23 06:25:00,65.7,64.2,29.92,West,270,1.0,-999.0,95,0.00,,,0.26,Wunderground v.1.15,2013-05-23 10:25:00,
2013-05-23 06:30:00,65.7,64.2,29.92,West,270,1.0,-999.0,95,0.00,,,0.26,Wunderground v.1.15,2013-05-23 10:30:00,
2013-05-23 06:35:00,65.7,64.2,29.92,West,270,1.0,-999.0,95,0.00,,,0.26,Wunderground v.1.15,2013-05-23 10:35:00,
2013-05-23 06:40:00,65.7,64.2,29.92,West,270,1.0,-999.0,95,0.00,,,0.26,Wunderground v.1.15,2013-05-23 10:40:00,
2013-05-23 06:45:00,65.7,64.2,29.92,West,270,1.0,-999.0,95,0.00,,,0.26,Wunderground v.1.15,2013-05-23 10:45:00,
2013-05-23 06:50:00,65.7,64.2,29.92,West,270,1.0,-999.0,95,0.00,,,0.26,Wunderground v.1.15,2013-05-23 10:50:00,
2013-05-23 06:55:00,65.7,64.2,29.92,West,270,1.0,-999.0,95,0.00,,,0.26,Wunderground v.1.15,2013-05-23 10:55:00,
2013-05-23 07:00:00,65.7,64.2,29.92,West,270,1.0,-999.0,95,0.00,,,0.26,Wunderground v.1.15,2013-05-23 11:00:00,
2013-05-23 07:31:00,65.8,64.3,29.92,WSW,250,1.0,1.0,95,0.00,,,0.26,Wunderground v.1.15,2013-05-23 11:31:00,
2013-05-23 07:35:00,65.8,64.3,29.92,WSW,250,1.0,1.0,95,0.00,,,0.26,Wunderground v.1.15,2013-05-23 11:35:00,
2013-05-23 07:40:00,65.8,64.3,29.92,WSW,250,0.0,1.0,95,0.00,,,0.27,Wunderground v.1.15,2013-05-23 11:40:00,
2013-05-23 07:45:00,65.9,64.4,29.92,WSW,250,0.0,0.0,95,0.00,,,0.27,Wunderground v.1.15,2013-05-23 11:45:00,
2013-05-23 07:50:00,65.9,64.4,29.92,WSW,250,0.0,0.0,95,0.00,,,0.27,Wunderground v.1.15,2013-05-23 11:50:00,
2013-05-23 07:55:00,66.0,64.5,29.92,WSW,250,0.0,0.0,95,0.00,,,0.27,Wunderground v.1.15,2013-05-23 11:55:00,
2013-05-23 08:00:00,66.1,64.6,29.92,WSW,250,0.0,0.0,95,0.00,,,0.27,Wunderground v.1.15,2013-05-23 12:00:00,
2013-05-23 08:05:00,66.3,64.8,29.92,WSW,252,1.0,1.0,95,0.00,,,0.27,Wunderground v.1.15,2013-05-23 12:05:00,
2013-05-23 08:10:00,66.5,65.0,29.92,WSW,253,1.0,4.0,95,0.00,,,0.27,Wunderground v.1.15,2013-05-23 12:10:00,
2013-05-23 08:15:00,66.6,65.1,29.92,WNW,284,0.0,4.0,95,0.00,,,0.27,Wunderground v.1.15,2013-05-23 12:15:00,
2013-05-23 08:25:00,66.8,65.3,29.92,WNW,284,0.0,4.0,95,0.00,,,0.27,Wunderground v.1.15,2013-05-23 12:25:00,
2013-05-23 08:30:00,67.0,65.2,29.92,WNW,284,1.0,1.0,94,0.00,,,0.27,Wunderground v.1.15,2013-05-23 12:30:00,
2013-05-23 08:35:00,67.1,65.3,29.92,WNW,284,1.0,4.0,94,0.00,,,0.27,Wunderground v.1.15,2013-05-23 12:35:00,
2013-05-23 08:40:00,67.3,65.5,29.92,WNW,284,0.0,4.0,94,0.00,,,0.27,Wunderground v.1.15,2013-05-23 12:40:00,
2013-05-23 08:45:00,67.4,65.6,29.92,WNW,283,1.0,4.0,94,0.00,,,0.27,Wunderground v.1.15,2013-05-23 12:45:00,
2013-05-23 08:50:00,67.5,65.7,29.92,WSW,257,1.0,4.0,94,0.00,,,0.27,Wunderground v.1.15,2013-05-23 12:50:00,
2013-05-23 08:55:00,67.5,65.4,29.92,WSW,258,2.0,4.0,93,0.00,,,0.27,Wunderground v.1.15,2013-05-23 12:55:00,
2013-05-23 09:00:00,67.5,65.4,29.92,WSW,248,3.0,3.0,93,0.00,,,0.27,Wunderground v.1.15,2013-05-23 13:00:00,
2013-05-23 09:05:00,67.4,65.3,29.92,West,271,2.0,3.0,93,0.00,,,0.27,Wunderground v.1.15,2013-05-23 13:05:00,
2013-05-23 09:10:00,67.5,65.4,29.92,WSW,246,2.0,2.0,93,0.00,,,0.27,Wunderground v.1.15,2013-05-23 13:10:00,
2013-05-23 09:15:00,67.7,65.6,29.92,WSW,242,2.0,2.0,93,0.00,,,0.27,Wunderground v.1.15,2013-05-23 13:15:00,
2013-05-23 09:20:00,67.7,65.3,29.92,WSW,240,2.0,3.0,92,0.00,,,0.27,Wunderground v.1.15,2013-05-23 13:20:00,
2013-05-23 09:25:00,67.7,65.3,29.92,SW,233,2.0,3.0,92,0.00,,,0.27,Wunderground v.1.15,2013-05-23 13:25:00,
2013-05-23 09:30:00,67.6,65.2,29.91,SW,235,2.0,2.0,92,0.00,,,0.27,Wunderground v.1.15,2013-05-23 13:30:00,
2013-05-23 09:35:00,67.7,65.3,29.92,SW,231,2.0,3.0,92,0.00,,,0.27,Wunderground v.1.15,2013-05-23 13:35:00,
2013-05-23 09:40:00,67.9,65.5,29.92,SW,231,1.0,1.0,92,0.00,,,0.27,Wunderground v.1.15,2013-05-23 13:40:00,
2013-05-23 09:45:00,68.1,65.7,29.92,SW,231,1.0,1.0,92,0.00,,,0.27,Wunderground v.1.15,2013-05-23 13:45:00,
2013-05-23 09:50:00,68.1,65.7,29.92,SW,225,1.0,1.0,92,0.00,,,0.27,Wunderground v.1.15,2013-05-23 13:50:00,
2013-05-23 09:55:00,68.1,65.7,29.92,SW,234,1.0,1.0,92,0.00,,,0.27,Wunderground v.1.15,2013-05-23 13:55:00,
2013-05-23 10:00:00,68.3,65.6,29.92,SW,234,1.0,3.0,91,0.00,,,0.27,Wunderground v.1.15,2013-05-23 14:00:00,
2013-05-23 10:05:00,68.3,65.6,29.92,WSW,246,1.0,4.0,91,0.00,,,0.27,Wunderground v.1.15,2013-05-23 14:05:00,
2013-05-23 10:10:00,68.6,66.2,29.92,SW,234,2.0,5.0,92,0.00,,,0.27,Wunderground v.1.15,2013-05-23 14:10:00,
2013-05-23 10:15:00,68.4,65.7,29.92,WSW,240,1.0,5.0,91,0.00,,,0.27,Wunderground v.1.15,2013-05-23 14:15:00,
2013-05-23 10:20:00,68.2,65.2,29.92,WSW,240,2.0,4.0,90,0.00,,,0.27,Wunderground v.1.15,2013-05-23 14:20:00,
2013-05-23 10:25:00,68.1,65.4,29.92,WSW,242,2.0,4.0,91,0.00,,,0.27,Wunderground v.1.15,2013-05-23 14:25:00,
2013-05-23 10:35:00,68.5,65.8,29.92,WSW,247,1.0,4.0,91,0.00,,,0.27,Wunderground v.1.15,2013-05-23 14:35:00,
2013-05-23 10:40:00,68.7,66.3,29.93,SW,234,1.0,1.0,92,0.00,,,0.27,Wunderground v.1.15,2013-05-23 14:40:00,
2013-05-23 10:45:00,68.8,66.1,29.92,SW,235,1.0,2.0,91,0.00,,,0.27,Wunderground v.1.15,2013-05-23 14:45:00,
2013-05-23 10:50:00,68.8,66.1,29.92,WSW,239,1.0,5.0,91,0.00,,,0.27,Wunderground v.1.15,2013-05-23 14:50:00,
2013-05-23 10:55:00,68.7,66.0,29.92,West,262,2.0,5.0,91,0.00,,,0.27,Wunderground v.1.15,2013-05-23 14:55:00,
2013-05-23 11:00:00,68.7,66.0,29.92,West,260,2.0,4.0,91,0.00,,,0.27,Wunderground v.1.15,2013-05-23 15:00:00,
2013-05-23 11:05:00,68.8,66.1,29.92,West,260,2.0,4.0,91,0.00,,,0.27,Wunderground v.1.15,2013-05-23 15:05:00,
2013-05-23 11:10:00,69.0,66.3,29.92,West,259,1.0,1.0,91,0.00,,,0.27,Wunderground v.1.15,2013-05-23 15:10:00,
2013-05-23 11:15:00,69.3,66.9,29.92,West,259,0.0,4.0,92,0.00,,,0.27,Wunderground v.1.15,2013-05-23 15:15:00,
2013-05-23 11:20:00,69.5,66.8,29.92,West,260,0.0,4.0,91,0.00,,,0.27,Wunderground v.1.15,2013-05-23 15:20:00,
2013-05-23 11:25:00,69.6,66.5,29.92,WSW,246,0.0,4.0,90,0.00,,,0.27,Wunderground v.1.15,2013-05-23 15:25:00,
2013-05-23 11:30:00,69.6,66.5,29.92,WSW,248,1.0,1.0,90,0.00,,,0.27,Wunderground v.1.15,2013-05-23 15:30:00,
2013-05-23 11:35:00,69.7,66.6,29.92,WSW,248,1.0,4.0,90,0.00,,,0.27,Wunderground v.1.15,2013-05-23 15:35:00,
2013-05-23 11:40:00,69.9,66.8,29.92,West,269,1.0,4.0,90,0.00,,,0.27,Wunderground v.1.15,2013-05-23 15:40:00,
2013-05-23 11:45:00,70.3,67.5,29.92,SSW,212,1.0,4.0,91,0.00,,,0.27,Wunderground v.1.15,2013-05-23 15:45:00,
2013-05-23 11:50:00,70.2,66.8,29.92,WSW,253,2.0,2.0,89,0.00,,,0.27,Wunderground v.1.15,2013-05-23 15:50:00,
2013-05-23 11:55:00,70.1,66.4,29.92,WSW,242,2.0,3.0,88,0.00,,,0.27,Wunderground v.1.15,2013-05-23 15:55:00,
2013-05-23 12:00:00,69.9,66.5,29.92,WSW,240,2.0,4.0,89,0.00,,,0.27,Wunderground v.1.15,2013-05-23 16:00:00,
2013-05-23 12:05:00,69.8,66.4,29.92,West,262,2.0,4.0,89,0.00,,,0.27,Wunderground v.1.15,2013-05-23 16:05:00,
2013-05-23 12:10:00,69.9,66.8,29.92,WSW,248,2.0,4.0,90,0.00,,,0.27,Wunderground v.1.15,2013-05-23 16:10:00,
2013-05-23 12:15:00,70.1,67.0,29.92,WSW,248,2.0,4.0,90,0.00,,,0.27,Wunderground v.1.15,2013-05-23 16:15:00,
2013-05-23 12:20:00,70.2,66.8,29.92,WSW,247,2.0,4.0,89,0.00,,,0.27,Wunderground v.1.15,2013-05-23 16:20:00,
2013-05-23 12:25:00,70.3,67.2,29.91,West,271,2.0,4.0,90,0.00,,,0.27,Wunderground v.1.15,2013-05-23 16:25:00,
2013-05-23 12:30:00,70.6,67.2,29.91,WSW,244,1.0,4.0,89,0.00,,,0.27,Wunderground v.1.15,2013-05-23 16:30:00,
2013-05-23 12:35:00,70.5,66.8,29.91,WSW,250,2.0,4.0,88,0.00,,,0.27,Wunderground v.1.15,2013-05-23 16:35:00,
2013-05-23 12:40:00,70.7,67.3,29.91,WSW,244,2.0,4.0,89,0.00,,,0.27,Wunderground v.1.15,2013-05-23 16:40:00,
2013-05-23 12:45:00,70.8,67.4,29.91,WSW,246,1.0,4.0,89,0.00,,,0.27,Wunderground v.1.15,2013-05-23 16:45:00,
2013-05-23 12:50:00,71.0,67.6,29.91,WSW,247,1.0,1.0,89,0.00,,,0.27,Wunderground v.1.15,2013-05-23 16:50:00,
2013-05-23 12:55:00,71.0,67.6,29.91,WNW,287,1.0,4.0,89,0.00,,,0.27,Wunderground v.1.15,2013-05-23 16:55:00,
2013-05-23 13:00:00,70.9,67.2,29.91,West,279,2.0,2.0,88,0.00,,,0.27,Wunderground v.1.15,2013-05-23 17:00:00,
2013-05-23 13:40:00,71.0,67.6,29.91,WSW,244,2.0,4.0,89,0.00,,,0.27,Wunderground v.1.15,2013-05-23 17:40:00,
2013-05-23 13:45:00,71.3,68.2,29.90,SW,236,2.0,4.0,90,0.00,,,0.27,Wunderground v.1.15,2013-05-23 17:45:00,
2013-05-23 13:50:00,71.5,67.4,29.90,WSW,248,1.0,4.0,87,0.00,,,0.27,Wunderground v.1.15,2013-05-23 17:50:00,
2013-05-23 14:00:00,72.0,67.9,29.90,WSW,248,1.0,4.0,87,0.00,,,0.27,Wunderground v.1.15,2013-05-23 18:00:00,
2013-05-23 14:05:00,72.8,69.0,29.89,WSW,239,1.0,4.0,88,0.00,,,0.27,Wunderground v.1.15,2013-05-23 18:05:00,
2013-05-23 14:10:00,73.4,69.3,29.89,WSW,258,1.0,1.0,87,0.00,,,0.27,Wunderground v.1.15,2013-05-23 18:10:00,
2013-05-23 14:15:00,73.3,68.2,29.89,West,279,1.0,4.0,84,0.00,,,0.27,Wunderground v.1.15,2013-05-23 18:15:00,
2013-05-23 14:20:00,73.6,68.8,29.89,SSE,147,1.0,1.0,85,0.00,,,0.27,Wunderground v.1.15,2013-05-23 18:20:00,
2013-05-23 14:25:00,74.2,69.4,29.88,NW,313,1.0,2.0,85,0.00,,,0.27,Wunderground v.1.15,2013-05-23 18:25:00,
2013-05-23 14:30:00,74.7,69.2,29.88,SSW,209,1.0,1.0,83,0.00,,,0.27,Wunderground v.1.15,2013-05-23 18:30:00,
2013-05-23 14:40:00,75.3,70.5,29.87,WSW,248,1.0,4.0,85,0.00,,,0.27,Wunderground v.1.15,2013-05-23 18:40:00,
2013-05-23 14:50:00,75.2,69.0,29.86,WNW,285,2.0,4.0,81,0.00,,,0.27,Wunderground v.1.15,2013-05-23 18:50:00,
2013-05-23 14:55:00,75.7,70.2,29.86,West,279,1.0,4.0,83,0.00,,,0.27,Wunderground v.1.15,2013-05-23 18:55:00,
2013-05-23 15:10:00,76.5,69.5,29.86,West,271,1.0,1.0,79,0.00,,,0.27,Wunderground v.1.15,2013-05-23 19:10:00,
2013-05-23 15:15:00,76.7,68.9,29.85,WSW,243,1.0,1.0,77,0.00,,,0.27,Wunderground v.1.15,2013-05-23 19:15:00,
2013-05-23 15:20:00,77.3,70.6,29.85,WSW,258,1.0,3.0,80,0.00,,,0.27,Wunderground v.1.15,2013-05-23 19:20:00,
2013-05-23 15:25:00,77.6,70.2,29.85,West,267,1.0,3.0,78,0.00,,,0.27,Wunderground v.1.15,2013-05-23 19:25:00,
2013-05-23 15:30:00,77.6,70.6,29.85,SW,219,1.0,1.0,79,0.00,,,0.27,Wunderground v.1.15,2013-05-23 19:30:00,
2013-05-23 15:35:00,78.0,70.2,29.85,SW,219,1.0,1.0,77,0.00,,,0.27,Wunderground v.1.15,2013-05-23 19:35:00,
2013-05-23 15:40:00,77.8,69.2,29.84,NW,320,1.0,1.0,75,0.00,,,0.27,Wunderground v.1.15,2013-05-23 19:40:00,
2013-05-23 15:45:00,77.8,70.4,29.84,WSW,242,2.0,2.0,78,0.00,,,0.27,Wunderground v.1.15,2013-05-23 19:45:00,
2013-05-23 15:50:00,77.9,70.1,29.84,West,275,2.0,2.0,77,0.00,,,0.27,Wunderground v.1.15,2013-05-23 19:50:00,
2013-05-23 15:55:00,78.2,70.0,29.84,WSW,242,1.0,2.0,76,0.00,,,0.27,Wunderground v.1.15,2013-05-23 19:55:00,
2013-05-23 16:05:00,78.8,70.6,29.83,NNW,344,1.0,5.0,76,0.00,,,0.27,Wunderground v.1.15,2013-05-23 20:05:00,
2013-05-23 16:10:00,79.1,69.7,29.83,West,265,1.0,1.0,73,0.00,,,0.27,Wunderground v.1.15,2013-05-23 20:10:00,
2013-05-23 16:15:00,79.0,70.0,29.83,West,265,1.0,5.0,74,0.00,,,0.27,Wunderground v.1.15,2013-05-23 20:15:00,
2013-05-23 16:20:00,79.0,70.4,29.83,WNW,292,1.0,5.0,75,0.00,,,0.27,Wunderground v.1.15,2013-05-23 20:20:00,
2013-05-23 16:25:00,79.1,69.3,29.83,SSE,153,1.0,5.0,72,0.00,,,0.27,Wunderground v.1.15,2013-05-23 20:25:00,
2013-05-23 16:30:00,79.4,67.9,29.83,NNE,28,0.0,5.0,68,0.00,,,0.27,Wunderground v.1.15,2013-05-23 20:30:00,
2013-05-23 16:35:00,79.5,70.5,29.83,West,273,1.0,5.0,74,0.00,,,0.27,Wunderground v.1.15,2013-05-23 20:35:00,
2013-05-23 16:40:00,79.6,69.4,29.83,West,275,1.0,1.0,71,0.00,,,0.27,Wunderground v.1.15,2013-05-23 20:40:00,
2013-05-23 16:45:00,79.7,67.8,29.82,East,88,0.0,5.0,67,0.00,,,0.27,Wunderground v.1.15,2013-05-23 20:45:00,
2013-05-23 16:50:00,79.2,68.6,29.82,WNW,290,0.0,5.0,70,0.00,,,0.27,Wunderground v.1.15,2013-05-23 20:50:00,
2013-05-23 16:55:00,78.5,68.3,29.83,WSW,253,1.0,5.0,71,0.00,,,0.27,Wunderground v.1.15,2013-05-23 20:55:00,
2013-05-23 17:00:00,78.2,68.0,29.82,SSW,193,1.0,1.0,71,0.00,,,0.27,Wunderground v.1.15,2013-05-23 21:00:00,
2013-05-23 17:05:00,77.9,68.1,29.83,SSW,194,0.0,1.0,72,0.00,,,0.27,Wunderground v.1.15,2013-05-23 21:05:00,
2013-05-23 17:10:00,77.7,68.4,29.83,SW,220,0.0,1.0,73,0.00,,,0.27,Wunderground v.1.15,2013-05-23 21:10:00,
2013-05-23 17:15:00,77.5,68.6,29.82,West,265,0.0,1.0,74,0.00,,,0.27,Wunderground v.1.15,2013-05-23 21:15:00,
2013-05-23 17:20:00,77.3,68.8,29.82,West,265,0.0,0.0,75,0.00,,,0.27,Wunderground v.1.15,2013-05-23 21:20:00,
2013-05-23 17:25:00,77.4,69.2,29.82,West,265,0.0,0.0,76,0.00,,,0.27,Wunderground v.1.15,2013-05-23 21:25:00,
2013-05-23 17:30:00,77.7,69.1,29.82,West,265,0.0,0.0,75,0.00,,,0.27,Wunderground v.1.15,2013-05-23 21:30:00,
2013-05-23 17:35:00,78.3,69.7,29.82,West,270,0.0,0.0,75,0.00,,,0.27,Wunderground v.1.15,2013-05-23 21:35:00,
2013-05-23 17:40:00,79.5,70.9,29.82,West,259,0.0,2.0,75,0.00,,,0.27,Wunderground v.1.15,2013-05-23 21:40:00,
2013-05-23 17:45:00,80.2,70.8,29.82,SW,232,1.0,2.0,73,0.00,,,0.27,Wunderground v.1.15,2013-05-23 21:45:00,
2013-05-23 17:50:00,80.6,71.1,29.82,WNW,286,1.0,1.0,73,0.00,,,0.27,Wunderground v.1.15,2013-05-23 21:50:00,
2013-05-23 17:55:00,80.7,70.0,29.82,SE,139,1.0,2.0,70,0.00,,,0.27,Wunderground v.1.15,2013-05-23 21:55:00,
2013-05-23 18:00:00,80.8,69.7,29.82,SSE,166,0.0,0.0,69,0.00,,,0.27,Wunderground v.1.15,2013-05-23 22:00:00,
2013-05-23 18:05:00,80.3,69.2,29.82,West,275,0.0,2.0,69,0.00,,,0.27,Wunderground v.1.15,2013-05-23 22:05:00,
2013-05-23 18:10:00,79.0,68.8,29.82,West,275,1.0,1.0,71,0.00,,,0.27,Wunderground v.1.15,2013-05-23 22:10:00,
2013-05-23 18:15:00,78.5,68.7,29.81,West,277,1.0,5.0,72,0.00,,,0.27,Wunderground v.1.15,2013-05-23 22:15:00,
2013-05-23 18:20:00,78.0,68.2,29.82,West,279,0.0,5.0,72,0.00,,,0.27,Wunderground v.1.15,2013-05-23 22:20:00,
2013-05-23 18:25:00,77.6,68.7,29.82,WNW,298,0.0,5.0,74,0.00,,,0.27,Wunderground v.1.15,2013-05-23 22:25:00,
2013-05-23 18:30:00,77.6,69.4,29.82,NNW,342,0.0,5.0,76,0.00,,,0.27,Wunderground v.1.15,2013-05-23 22:30:00,
2013-05-23 18:35:00,77.5,69.3,29.81,NW,311,0.0,5.0,76,0.00,,,0.27,Wunderground v.1.15,2013-05-23 22:35:00,
2013-05-23 18:40:00,77.2,69.0,29.81,WNW,284,0.0,5.0,76,0.00,,,0.27,Wunderground v.1.15,2013-05-23 22:40:00,
2013-05-23 18:45:00,77.1,68.9,29.81,WNW,286,1.0,5.0,76,0.00,,,0.27,Wunderground v.1.15,2013-05-23 22:45:00,
2013-05-23 18:50:00,77.1,69.3,29.81,WNW,286,0.0,5.0,77,0.00,,,0.27,Wunderground v.1.15,2013-05-23 22:50:00,
2013-05-23 18:55:00,77.3,69.5,29.81,WNW,286,0.0,5.0,77,0.00,,,0.27,Wunderground v.1.15,2013-05-23 22:55:00,
2013-05-23 19:00:00,78.0,69.8,29.81,West,281,0.0,5.0,76,0.00,,,0.27,Wunderground v.1.15,2013-05-23 23:00:00,
2013-05-23 19:05:00,78.6,70.4,29.81,West,281,0.0,5.0,76,0.00,,,0.27,Wunderground v.1.15,2013-05-23 23:05:00,
2013-05-23 19:10:00,78.9,69.9,29.81,WNW,282,1.0,1.0,74,0.00,,,0.27,Wunderground v.1.15,2013-05-23 23:10:00,
2013-05-23 19:15:00,79.0,70.4,29.81,WNW,282,1.0,2.0,75,0.00,,,0.27,Wunderground v.1.15,2013-05-23 23:15:00,
2013-05-23 19:25:00,78.5,69.9,29.81,WNW,288,1.0,5.0,75,0.00,,,0.27,Wunderground v.1.15,2013-05-23 23:25:00,
2013-05-23 19:30:00,78.4,69.8,29.81,WNW,288,0.0,5.0,75,0.00,,,0.27,Wunderground v.1.15,2013-05-23 23:30:00,
2013-05-23 19:35:00,77.9,69.3,29.80,WNW,285,1.0,5.0,75,0.00,,,0.27,Wunderground v.1.15,2013-05-23 23:35:00,
2013-05-23 19:40:00,77.5,69.3,29.81,WNW,290,1.0,1.0,76,0.00,,,0.27,Wunderground v.1.15,2013-05-23 23:40:00,
2013-05-23 19:45:00,77.1,69.3,29.81,WNW,283,0.0,5.0,77,0.00,,,0.27,Wunderground v.1.15,2013-05-23 23:45:00,
2013-05-23 19:50:00,76.8,69.0,29.81,WNW,283,0.0,5.0,77,0.00,,,0.27,Wunderground v.1.15,2013-05-23 23:50:00,
2013-05-23 19:55:00,76.4,69.0,29.81,West,261,0.0,5.0,78,0.00,,,0.27,Wunderground v.1.15,2013-05-23 23:55:00,
2013-05-23 20:00:00,76.2,68.8,29.80,West,261,0.0,5.0,78,0.00,,,0.27,Wunderground v.1.15,2013-05-24 00:00:00,
2013-05-23 20:05:00,76.0,68.6,29.80,West,261,0.0,5.0,78,0.00,,,0.27,Wunderground v.1.15,2013-05-24 00:05:00,
2013-05-23 20:10:00,75.7,68.7,29.80,West,277,0.0,5.0,79,0.00,,,0.27,Wunderground v.1.15,2013-05-24 00:10:00,
2013-05-23 20:15:00,75.4,68.8,29.81,West,278,1.0,5.0,80,0.00,,,0.27,Wunderground v.1.15,2013-05-24 00:15:00,
2013-05-23 20:20:00,75.1,68.5,29.80,West,278,1.0,1.0,80,0.00,,,0.27,Wunderground v.1.15,2013-05-24 00:20:00,
2013-05-23 20:25:00,74.8,68.6,29.80,West,261,1.0,2.0,81,0.00,,,0.27,Wunderground v.1.15,2013-05-24 00:25:00,
2013-05-23 20:30:00,74.4,68.5,29.80,West,261,1.0,1.0,82,0.00,,,0.27,Wunderground v.1.15,2013-05-24 00:30:00,
2013-05-23 20:35:00,74.2,68.3,29.80,West,271,1.0,5.0,82,0.00,,,0.27,Wunderground v.1.15,2013-05-24 00:35:00,
2013-05-23 20:40:00,74.1,68.3,29.80,West,271,0.0,5.0,82,0.00,,,0.27,Wunderground v.1.15,2013-05-24 00:40:00,
2013-05-23 20:45:00,73.9,68.1,29.80,West,271,0.0,5.0,82,0.00,,,0.27,Wunderground v.1.15,2013-05-24 00:45:00,
2013-05-23 20:50:00,73.5,67.7,29.81,West,271,0.0,5.0,82,0.00,,,0.27,Wunderground v.1.15,2013-05-24 00:50:00,
2013-05-23 20:55:00,73.2,67.7,29.81,West,271,0.0,5.0,83,0.00,,,0.27,Wunderground v.1.15,2013-05-24 00:55:00,
2013-05-23 21:00:00,72.9,67.4,29.81,West,271,0.0,5.0,83,0.00,,,0.27,Wunderground v.1.15,2013-05-24 01:00:00,
2013-05-23 21:05:00,72.5,67.4,29.82,West,271,0.0,5.0,84,0.00,,,0.27,Wunderground v.1.15,2013-05-24 01:05:00,
2013-05-23 21:10:00,72.3,67.5,29.82,West,271,0.0,5.0,85,0.00,,,0.27,Wunderground v.1.15,2013-05-24 01:10:00,
2013-05-23 21:15:00,72.1,67.3,29.82,West,271,0.0,5.0,85,0.00,,,0.27,Wunderground v.1.15,2013-05-24 01:15:00,
2013-05-23 21:20:00,72.1,67.7,29.82,West,274,0.0,5.0,86,0.00,,,0.27,Wunderground v.1.15,2013-05-24 01:20:00,
2013-05-23 21:25:00,72.1,67.7,29.83,West,273,0.0,5.0,86,0.00,,,0.27,Wunderground v.1.15,2013-05-24 01:25:00,
2013-05-23 21:30:00,72.2,67.1,29.83,West,260,1.0,5.0,84,0.00,,,0.27,Wunderground v.1.15,2013-05-24 01:30:00,
2013-05-23 21:35:00,72.2,67.1,29.83,West,260,2.0,5.0,84,0.00,,,0.27,Wunderground v.1.15,2013-05-24 01:35:00,
2013-05-23 21:40:00,72.4,67.3,29.83,WSW,246,1.0,5.0,84,0.00,,,0.27,Wunderground v.1.15,2013-05-24 01:40:00,
2013-05-23 21:45:00,72.4,67.3,29.84,SE,140,2.0,5.0,84,0.00,,,0.27,Wunderground v.1.15,2013-05-24 01:45:00,
2013-05-23 21:50:00,72.3,66.5,29.84,South,176,2.0,6.0,82,0.00,,,0.27,Wunderground v.1.15,2013-05-24 01:50:00,
2013-05-23 21:55:00,71.9,65.4,29.84,NW,313,2.0,6.0,80,0.00,,,0.27,Wunderground v.1.15,2013-05-24 01:55:00,
2013-05-23 22:00:00,71.4,64.5,29.84,East,84,1.0,1.0,79,0.00,,,0.27,Wunderground v.1.15,2013-05-24 02:00:00,
2013-05-23 22:05:00,71.1,64.3,29.84,East,81,1.0,5.0,79,0.00,,,0.27,Wunderground v.1.15,2013-05-24 02:05:00,
2013-05-23 22:10:00,71.4,64.5,29.84,WSW,248,1.0,-999.0,79,0.00,,,0.27,Wunderground v.1.15,2013-05-24 02:10:00,
2013-05-23 22:15:00,70.1,64.0,29.86,ENE,68,0.0,-999.0,81,0.00,,,0.27,Wunderground v.1.15,2013-05-24 02:15:00,
2013-05-23 22:20:00,70.1,64.0,29.86,ENE,68,0.0,-999.0,81,0.00,,,0.27,Wunderground v.1.15,2013-05-24 02:20:00,
2013-05-23 22:25:00,70.1,64.0,29.86,ENE,68,0.0,-999.0,81,0.00,,,0.27,Wunderground v.1.15,2013-05-24 02:25:00,
2013-05-23 22:30:00,70.1,64.0,29.86,ENE,68,0.0,-999.0,81,0.00,,,0.27,Wunderground v.1.15,2013-05-24 02:30:00,
2013-05-23 22:35:00,70.1,64.0,29.86,ENE,68,0.0,-999.0,81,0.00,,,0.27,Wunderground v.1.15,2013-05-24 02:35:00,
2013-05-23 22:40:00,70.1,64.0,29.86,ENE,68,0.0,-999.0,81,0.00,,,0.27,Wunderground v.1.15,2013-05-24 02:40:00,
2013-05-23 22:45:00,69.2,64.2,29.87,ENE,68,0.0,-999.0,84,0.00,,,0.27,Wunderground v.1.15,2013-05-24 02:45:00,
2013-05-23 22:50:00,69.2,64.2,29.87,ENE,68,0.0,-999.0,84,0.00,,,0.27,Wunderground v.1.15,2013-05-24 02:50:00,
2013-05-23 22:55:00,69.2,64.2,29.87,ENE,68,0.0,-999.0,84,0.00,,,0.27,Wunderground v.1.15,2013-05-24 02:55:00,
2013-05-23 23:00:00,69.2,64.2,29.87,ENE,68,0.0,-999.0,84,0.00,,,0.27,Wunderground v.1.15,2013-05-24 03:00:00,
2013-05-23 23:05:00,69.2,64.2,29.87,ENE,68,0.0,-999.0,84,0.00,,,0.27,Wunderground v.1.15,2013-05-24 03:05:00,
2013-05-23 23:10:00,69.2,64.2,29.87,ENE,68,0.0,-999.0,84,0.00,,,0.27,Wunderground v.1.15,2013-05-24 03:10:00,
2013-05-23 23:15:00,67.5,63.2,29.87,East,90,0.0,-999.0,86,0.00,,,0.27,Wunderground v.1.15,2013-05-24 03:15:00,
2013-05-23 23:20:00,67.5,63.2,29.87,East,90,0.0,-999.0,86,0.00,,,0.27,Wunderground v.1.15,2013-05-24 03:20:00,
2013-05-23 23:25:00,67.5,63.2,29.87,East,90,0.0,-999.0,86,0.00,,,0.27,Wunderground v.1.15,2013-05-24 03:25:00,
2013-05-23 23:30:00,67.5,63.2,29.87,East,90,0.0,-999.0,86,0.00,,,0.27,Wunderground v.1.15,2013-05-24 03:30:00,
2013-05-23 23:35:00,67.5,63.2,29.87,East,90,0.0,-999.0,86,0.00,,,0.27,Wunderground v.1.15,2013-05-24 03:35:00,
2013-05-23 23:40:00,67.5,63.2,29.87,East,90,0.0,-999.0,86,0.00,,,0.27,Wunderground v.1.15,2013-05-24 03:40:00,
2013-05-23 23:45:00,67.0,63.0,29.88,East,90,0.0,-999.0,87,0.00,,,0.27,Wunderground v.1.15,2013-05-24 03:45:00,
2013-05-23 23:50:00,67.0,63.0,29.88,East,90,0.0,-999.0,87,0.00,,,0.27,Wunderground v.1.15,2013-05-24 03:50:00,
2013-05-23 23:55:00,67.0,63.0,29.88,East,90,0.0,-999.0,87,0.00,,,0.27,Wunderground v.1.15,2013-05-24 03:55:00,